EZY4PH EGPH-EGCC

Flight info

Callsign EZY4PH
Flight time 0h 50m
Altitude 19000
Route GOSAM P600 FENIK L612 LAKEY
Aircraft A319/M-SDE3FGHIRWY/LB1

Departure

Time 2026-05-06 19:47
Airport Edinburgh Airport (EGPH)

Arrival

Time 2026-05-06 20:38
Airport Manchester Airport (EGCC)
Time Latitude Longitude Altitude Speed Heading
2026-05-06 19:20 55.94753 -3.36599 107 ft 0 kts 89°
2026-05-06 19:27 55.94753 -3.36600 107 ft 0 kts 89°
2026-05-06 19:35 55.94753 -3.36625 106 ft 4 kts 89°
2026-05-06 19:35 55.94752 -3.36673 105 ft 4 kts 83°
2026-05-06 19:36 55.94745 -3.36716 104 ft 4 kts 46°
2026-05-06 19:36 55.94728 -3.36730 103 ft 1 kts 345°
2026-05-06 19:39 55.94730 -3.36731 103 ft 1 kts 345°
2026-05-06 19:39 55.94751 -3.36744 105 ft 4 kts 338°
2026-05-06 19:39 55.94781 -3.36777 105 ft 6 kts 332°
2026-05-06 19:39 55.94825 -3.36779 105 ft 6 kts
2026-05-06 19:40 55.94869 -3.36781 105 ft 6 kts 352°
2026-05-06 19:40 55.94905 -3.36812 105 ft 6 kts 327°
2026-05-06 19:40 55.94928 -3.36874 103 ft 7 kts 273°
2026-05-06 19:40 55.94902 -3.36961 103 ft 9 kts 239°
2026-05-06 19:41 55.94871 -3.37053 105 ft 8 kts 239°
2026-05-06 19:41 55.94841 -3.37142 104 ft 9 kts 238°
2026-05-06 19:41 55.94807 -3.37242 104 ft 10 kts 239°
2026-05-06 19:41 55.94776 -3.37334 107 ft 7 kts 239°
2026-05-06 19:42 55.94751 -3.37409 109 ft 6 kts 239°
2026-05-06 19:42 55.94722 -3.37493 110 ft 10 kts 239°
2026-05-06 19:42 55.94686 -3.37601 111 ft 9 kts 239°
2026-05-06 19:42 55.94657 -3.37686 113 ft 7 kts 239°
2026-05-06 19:43 55.94623 -3.37785 113 ft 14 kts 240°
2026-05-06 19:43 55.94561 -3.37971 113 ft 20 kts 239°
2026-05-06 19:43 55.94500 -3.38150 109 ft 16 kts 238°
2026-05-06 19:43 55.94445 -3.38311 113 ft 14 kts 239°
2026-05-06 19:44 55.94396 -3.38456 113 ft 13 kts 237°
2026-05-06 19:44 55.94353 -3.38583 115 ft 10 kts 239°
2026-05-06 19:44 55.94319 -3.38682 118 ft 9 kts 238°
2026-05-06 19:44 55.94285 -3.38782 118 ft 10 kts 243°
2026-05-06 19:45 55.94297 -3.38876 117 ft 8 kts 319°
2026-05-06 19:45 55.94311 -3.38892 121 ft 0 kts 329°
2026-05-06 19:46 55.94330 -3.38912 119 ft 8 kts 329°
2026-05-06 19:46 55.94406 -3.38955 116 ft 16 kts 11°
2026-05-06 19:46 55.94457 -3.38844 117 ft 0 kts 59°
2026-05-06 19:47 55.94529 -3.38628 113 ft 63 kts 59°
2026-05-06 19:47 55.94919 -3.37472 107 ft 148 kts 59°
2026-05-06 19:47 55.95366 -3.36160 411 ft 170 kts 63°
2026-05-06 19:47 55.95992 -3.34371 1345 ft 171 kts 55°
2026-05-06 19:48 55.96875 -3.32860 2024 ft 185 kts 44°
2026-05-06 19:48 55.97953 -3.31909 2359 ft 211 kts
2026-05-06 19:48 55.99453 -3.32509 2701 ft 238 kts 324°
2026-05-06 19:48 56.00531 -3.34882 3254 ft 258 kts 293°
2026-05-06 19:49 56.01136 -3.37933 4261 ft 262 kts 283°
2026-05-06 19:49 56.01559 -3.41100 5415 ft 262 kts 277°
2026-05-06 19:49 56.01597 -3.44314 6494 ft 263 kts 263°
2026-05-06 19:49 56.01255 -3.47530 7512 ft 265 kts 253°
2026-05-06 19:50 56.00742 -3.50718 8515 ft 269 kts 254°
2026-05-06 19:50 56.00267 -3.53966 9536 ft 272 kts 255°
2026-05-06 19:50 55.99803 -3.57297 10339 ft 283 kts 256°
2026-05-06 19:50 55.99317 -3.60805 10907 ft 298 kts 256°
2026-05-06 19:51 55.98810 -3.64444 11765 ft 303 kts 256°
2026-05-06 19:51 55.98292 -3.68121 12678 ft 307 kts 255°
2026-05-06 19:51 55.97747 -3.71937 13600 ft 310 kts 255°
2026-05-06 19:51 55.97223 -3.75572 14374 ft 313 kts 255°
2026-05-06 19:52 55.96676 -3.79366 15163 ft 317 kts 255°
2026-05-06 19:52 55.96126 -3.83183 15940 ft 320 kts 256°
2026-05-06 19:52 55.95573 -3.87000 16709 ft 323 kts 256°
2026-05-06 19:52 55.94996 -3.90953 17485 ft 326 kts 256°
2026-05-06 19:53 55.94436 -3.94787 18224 ft 329 kts 256°
2026-05-06 19:53 55.93749 -3.98650 18786 ft 334 kts 248°
2026-05-06 19:53 55.92585 -4.02227 18953 ft 335 kts 234°
2026-05-06 19:53 55.90987 -4.05167 19009 ft 325 kts 221°
2026-05-06 19:54 55.89175 -4.07428 19017 ft 310 kts 217°
2026-05-06 19:54 55.87428 -4.09542 19019 ft 297 kts 218°
2026-05-06 19:54 55.85756 -4.11591 19020 ft 293 kts 218°
2026-05-06 19:54 55.84081 -4.13650 19022 ft 292 kts 218°
2026-05-06 19:55 55.82415 -4.15701 19024 ft 291 kts 218°
2026-05-06 19:55 55.80743 -4.17752 19025 ft 291 kts 218°
2026-05-06 19:55 55.79077 -4.19791 19025 ft 291 kts 218°
2026-05-06 19:55 55.77412 -4.21837 19025 ft 291 kts 218°
2026-05-06 19:56 55.75752 -4.23895 19021 ft 291 kts 218°
2026-05-06 19:56 55.74063 -4.25883 19021 ft 293 kts 211°
2026-05-06 19:56 55.72119 -4.27052 19022 ft 300 kts 193°
2026-05-06 19:56 55.70733 -4.27182 19007 ft 305 kts 180°
2026-05-06 19:57 55.68646 -4.26311 19002 ft 313 kts 160°
2026-05-06 19:57 55.66714 -4.24470 18997 ft 316 kts 154°
2026-05-06 19:57 55.64171 -4.21947 18995 ft 316 kts 155°
2026-05-06 19:57 55.62872 -4.20672 18999 ft 317 kts 155°
2026-05-06 19:58 55.60937 -4.18780 19002 ft 317 kts 155°
2026-05-06 19:58 55.59009 -4.16899 19005 ft 317 kts 155°
2026-05-06 19:58 55.57068 -4.15010 19006 ft 318 kts 155°
2026-05-06 19:58 55.55130 -4.13125 19007 ft 318 kts 155°
2026-05-06 19:59 55.53195 -4.11241 19015 ft 318 kts 155°
2026-05-06 19:59 55.51278 -4.09374 19016 ft 318 kts 155°
2026-05-06 19:59 55.49343 -4.07490 19019 ft 318 kts 155°
2026-05-06 19:59 55.47405 -4.05603 19019 ft 318 kts 155°
2026-05-06 20:00 55.45469 -4.03717 19001 ft 318 kts 155°
2026-05-06 20:00 55.43529 -4.01830 19007 ft 318 kts 155°
2026-05-06 20:00 55.41595 -3.99951 19007 ft 318 kts 155°
2026-05-06 20:00 55.39651 -3.98066 19017 ft 318 kts 155°
2026-05-06 20:01 55.37711 -3.96188 19022 ft 318 kts 155°
2026-05-06 20:01 55.35776 -3.94317 19023 ft 318 kts 155°
2026-05-06 20:01 55.33831 -3.92442 19025 ft 318 kts 155°
2026-05-06 20:01 55.31892 -3.90577 19026 ft 318 kts 155°
2026-05-06 20:02 55.29953 -3.88717 19030 ft 318 kts 155°
2026-05-06 20:02 55.28015 -3.86859 19028 ft 318 kts 155°
2026-05-06 20:02 55.26076 -3.85002 19025 ft 317 kts 155°
2026-05-06 20:02 55.24140 -3.83149 19027 ft 317 kts 155°
2026-05-06 20:03 55.22208 -3.81298 19028 ft 317 kts 155°
2026-05-06 20:03 55.20259 -3.79430 19018 ft 317 kts 155°
2026-05-06 20:03 55.18322 -3.77573 19019 ft 317 kts 155°
2026-05-06 20:03 55.16421 -3.75757 19021 ft 317 kts 155°
2026-05-06 20:04 55.14443 -3.73876 19023 ft 317 kts 155°
2026-05-06 20:04 55.12523 -3.72053 19025 ft 317 kts 155°
2026-05-06 20:04 55.10591 -3.70213 19029 ft 317 kts 155°
2026-05-06 20:04 55.08646 -3.68361 19031 ft 318 kts 155°
2026-05-06 20:05 55.06709 -3.66519 19032 ft 317 kts 155°
2026-05-06 20:05 55.04766 -3.64675 19029 ft 318 kts 155°
2026-05-06 20:05 55.02820 -3.62831 19026 ft 318 kts 155°
2026-05-06 20:05 55.00885 -3.60996 19032 ft 318 kts 155°
2026-05-06 20:06 54.98936 -3.59151 19031 ft 318 kts 155°
2026-05-06 20:06 54.97001 -3.57325 19032 ft 318 kts 155°
2026-05-06 20:06 54.95051 -3.55487 19017 ft 318 kts 155°
2026-05-06 20:06 54.93098 -3.53649 19020 ft 318 kts 155°
2026-05-06 20:07 54.91161 -3.51828 19023 ft 318 kts 155°
2026-05-06 20:07 54.89214 -3.49993 19026 ft 318 kts 155°
2026-05-06 20:07 54.87262 -3.48155 19028 ft 318 kts 155°
2026-05-06 20:07 54.85317 -3.46329 19032 ft 318 kts 155°
2026-05-06 20:08 54.83372 -3.44508 19033 ft 318 kts 155°
2026-05-06 20:08 54.81442 -3.42705 19034 ft 318 kts 155°
2026-05-06 20:08 54.79494 -3.40885 19037 ft 318 kts 155°
2026-05-06 20:08 54.77524 -3.39048 19038 ft 318 kts 155°
2026-05-06 20:09 54.75571 -3.37230 19039 ft 318 kts 155°
2026-05-06 20:09 54.73619 -3.35407 19040 ft 318 kts 155°
2026-05-06 20:09 54.71682 -3.33631 19040 ft 318 kts 157°
2026-05-06 20:09 54.69689 -3.32007 19032 ft 317 kts 159°
2026-05-06 20:10 54.67671 -3.30495 19036 ft 316 kts 160°
2026-05-06 20:10 54.65645 -3.29026 19035 ft 316 kts 161°
2026-05-06 20:10 54.63614 -3.27557 19038 ft 316 kts 161°
2026-05-06 20:10 54.61582 -3.26075 19040 ft 316 kts 160°
2026-05-06 20:11 54.59632 -3.24635 19042 ft 317 kts 160°
2026-05-06 20:11 54.57611 -3.23129 19043 ft 316 kts 160°
2026-05-06 20:11 54.55578 -3.21607 19040 ft 316 kts 160°
2026-05-06 20:11 54.53563 -3.20098 19042 ft 316 kts 160°
2026-05-06 20:12 54.51551 -3.18594 19042 ft 315 kts 160°
2026-05-06 20:12 54.49531 -3.17090 19045 ft 315 kts 160°
2026-05-06 20:12 54.47539 -3.15612 19043 ft 315 kts 160°
2026-05-06 20:12 54.45527 -3.14121 19032 ft 315 kts 160°
2026-05-06 20:13 54.43524 -3.12635 19032 ft 315 kts 160°
2026-05-06 20:13 54.41485 -3.11120 19035 ft 315 kts 160°
2026-05-06 20:13 54.39464 -3.09618 19035 ft 315 kts 160°
2026-05-06 20:13 54.37454 -3.08129 19035 ft 315 kts 160°
2026-05-06 20:14 54.35474 -3.06663 19035 ft 315 kts 160°
2026-05-06 20:14 54.33468 -3.05177 19039 ft 315 kts 160°
2026-05-06 20:14 54.31460 -3.03693 19038 ft 314 kts 160°
2026-05-06 20:14 54.29448 -3.02213 19035 ft 314 kts 160°
2026-05-06 20:15 54.27414 -3.00719 19036 ft 328 kts 160°
2026-05-06 20:15 54.25219 -2.99122 19020 ft 353 kts 160°
2026-05-06 20:15 54.23001 -2.97174 19023 ft 363 kts 149°
2026-05-06 20:15 54.20883 -2.94777 19015 ft 365 kts 149°
2026-05-06 20:16 54.18767 -2.92386 19028 ft 364 kts 149°
2026-05-06 20:16 54.16647 -2.89994 19030 ft 364 kts 149°
2026-05-06 20:16 54.14529 -2.87610 19030 ft 364 kts 149°
2026-05-06 20:16 54.12605 -2.85450 19030 ft 364 kts 149°
2026-05-06 20:17 54.10484 -2.83072 19027 ft 364 kts 149°
2026-05-06 20:17 54.08366 -2.80704 19027 ft 364 kts 149°
2026-05-06 20:17 54.06253 -2.78349 19027 ft 364 kts 149°
2026-05-06 20:17 54.04127 -2.75983 19027 ft 364 kts 149°
2026-05-06 20:18 54.02012 -2.73626 19029 ft 364 kts 149°
2026-05-06 20:18 53.99890 -2.71264 19034 ft 364 kts 149°
2026-05-06 20:18 53.97774 -2.68914 19033 ft 364 kts 149°
2026-05-06 20:18 53.95685 -2.66599 19044 ft 364 kts 149°
2026-05-06 20:19 53.93594 -2.64284 19035 ft 364 kts 149°
2026-05-06 20:19 53.91475 -2.61937 19035 ft 364 kts 149°
2026-05-06 20:19 53.89352 -2.59586 19039 ft 363 kts 149°
2026-05-06 20:19 53.87265 -2.57277 19042 ft 364 kts 149°
2026-05-06 20:20 53.85103 -2.54893 19039 ft 364 kts 149°
2026-05-06 20:20 53.83016 -2.52594 19043 ft 364 kts 149°
2026-05-06 20:20 53.80890 -2.50254 19042 ft 364 kts 149°
2026-05-06 20:20 53.78767 -2.47917 19039 ft 364 kts 149°
2026-05-06 20:21 53.76649 -2.45590 19041 ft 364 kts 149°
2026-05-06 20:21 53.74523 -2.43258 19046 ft 364 kts 149°
2026-05-06 20:21 53.72399 -2.40929 19044 ft 364 kts 149°
2026-05-06 20:21 53.70387 -2.38733 19033 ft 363 kts 149°
2026-05-06 20:22 53.68327 -2.36660 19030 ft 361 kts 159°
2026-05-06 20:22 53.65908 -2.35735 19020 ft 355 kts 182°
2026-05-06 20:22 53.63493 -2.36351 19031 ft 351 kts 196°
2026-05-06 20:22 53.61119 -2.37337 19028 ft 351 kts 197°
2026-05-06 20:23 53.58761 -2.38363 19023 ft 347 kts 197°
2026-05-06 20:23 53.56480 -2.39445 18915 ft 333 kts 203°
2026-05-06 20:23 53.54567 -2.41455 18728 ft 319 kts 225°
2026-05-06 20:23 53.53054 -2.44133 18398 ft 315 kts 230°
2026-05-06 20:24 53.51600 -2.46865 18010 ft 313 kts 230°
2026-05-06 20:24 53.50161 -2.49582 17592 ft 311 kts 230°
2026-05-06 20:24 53.48727 -2.52291 17194 ft 309 kts 230°
2026-05-06 20:24 53.47299 -2.54988 16787 ft 308 kts 230°
2026-05-06 20:25 53.45884 -2.57656 16354 ft 308 kts 230°
2026-05-06 20:25 53.44459 -2.60346 15953 ft 308 kts 230°
2026-05-06 20:25 53.43038 -2.63027 15556 ft 308 kts 230°
2026-05-06 20:25 53.41614 -2.65709 15152 ft 308 kts 230°
2026-05-06 20:26 53.40187 -2.68393 14755 ft 307 kts 230°
2026-05-06 20:26 53.38766 -2.71061 14357 ft 307 kts 230°
2026-05-06 20:26 53.37341 -2.73729 13969 ft 306 kts 230°
2026-05-06 20:26 53.35923 -2.76380 13549 ft 306 kts 230°
2026-05-06 20:27 53.34309 -2.78687 13112 ft 308 kts 211°
2026-05-06 20:27 53.32301 -2.79654 12933 ft 305 kts 185°
2026-05-06 20:27 53.30242 -2.79105 12781 ft 300 kts 159°
2026-05-06 20:27 53.28535 -2.77179 12483 ft 301 kts 134°
2026-05-06 20:28 53.27448 -2.74169 11958 ft 306 kts 108°
2026-05-06 20:28 53.26946 -2.70674 11446 ft 310 kts 101°
2026-05-06 20:28 53.26541 -2.67195 10949 ft 309 kts 100°
2026-05-06 20:28 53.26141 -2.63701 10452 ft 304 kts 100°
2026-05-06 20:29 53.25749 -2.60265 9965 ft 298 kts 99°
2026-05-06 20:29 53.25717 -2.56865 9428 ft 289 kts 76°
2026-05-06 20:29 53.26392 -2.54252 8964 ft 280 kts 52°
2026-05-06 20:29 53.27816 -2.52187 8439 ft 269 kts 23°
2026-05-06 20:30 53.29581 -2.51446 7920 ft 259 kts
2026-05-06 20:30 53.33069 -2.51071 7067 ft 243 kts
2026-05-06 20:30 53.34734 -2.50946 6664 ft 235 kts 355°
2026-05-06 20:31 53.36241 -2.51698 6206 ft 223 kts 322°
2026-05-06 20:31 53.37194 -2.53647 5692 ft 217 kts 289°
2026-05-06 20:31 53.37284 -2.56085 5256 ft 211 kts 253°
2026-05-06 20:31 53.36527 -2.58096 4749 ft 209 kts 217°
2026-05-06 20:32 53.35206 -2.58944 4300 ft 202 kts 179°
2026-05-06 20:32 53.33880 -2.58371 3876 ft 197 kts 154°
2026-05-06 20:32 53.32665 -2.57306 3420 ft 197 kts 150°
2026-05-06 20:32 53.31472 -2.56190 3178 ft 191 kts 149°
2026-05-06 20:33 53.30336 -2.55165 3062 ft 184 kts 150°
2026-05-06 20:33 53.29221 -2.54161 3029 ft 181 kts 150°
2026-05-06 20:33 53.28119 -2.53172 3027 ft 180 kts 150°
2026-05-06 20:33 53.27089 -2.51987 2862 ft 180 kts 134°
2026-05-06 20:34 53.26382 -2.50314 2739 ft 177 kts 114°
2026-05-06 20:34 53.26069 -2.48364 2634 ft 171 kts 95°
2026-05-06 20:34 53.26161 -2.46413 2509 ft 170 kts 78°
2026-05-06 20:34 53.26635 -2.44620 2314 ft 168 kts 60°
2026-05-06 20:35 53.27116 -2.43589 2172 ft 168 kts 54°
2026-05-06 20:35 53.28090 -2.41588 1877 ft 162 kts 54°
2026-05-06 20:35 53.28755 -2.40224 1661 ft 143 kts 54°
2026-05-06 20:35 53.29367 -2.38965 1473 ft 137 kts 55°
2026-05-06 20:36 53.29763 -2.38149 1342 ft 131 kts 55°
2026-05-06 20:36 53.30327 -2.36988 1150 ft 127 kts 54°
2026-05-06 20:36 53.30877 -2.35854 978 ft 125 kts 54°
2026-05-06 20:36 53.31413 -2.34748 800 ft 125 kts 53°
2026-05-06 20:37 53.31968 -2.33603 628 ft 126 kts 54°
2026-05-06 20:37 53.32502 -2.32489 434 ft 128 kts 54°
2026-05-06 20:37 53.33060 -2.31352 291 ft 126 kts 52°
2026-05-06 20:37 53.33571 -2.30287 201 ft 114 kts 52°
2026-05-06 20:38 53.33880 -2.29658 210 ft 37 kts 51°
2026-05-06 20:38 53.34030 -2.29344 213 ft 32 kts 50°
2026-05-06 20:38 53.34164 -2.29066 214 ft 29 kts 51°
2026-05-06 20:38 53.34294 -2.28799 214 ft 29 kts 51°
2026-05-06 20:39 53.34440 -2.28588 221 ft 27 kts 29°
2026-05-06 20:39 53.34572 -2.28494 225 ft 14 kts 21°
2026-05-06 20:39 53.34616 -2.28464 230 ft 3 kts 21°
2026-05-06 20:39 53.34632 -2.28454 230 ft 4 kts 21°
2026-05-06 20:40 53.34669 -2.28431 231 ft 5 kts 21°
2026-05-06 20:40 53.34711 -2.28394 234 ft 10 kts 32°
2026-05-06 20:40 53.34776 -2.28277 235 ft 17 kts 53°
2026-05-06 20:40 53.34864 -2.28086 238 ft 25 kts 51°
2026-05-06 20:41 53.34987 -2.27831 238 ft 31 kts 51°
2026-05-06 20:41 53.35119 -2.27562 245 ft 23 kts 54°
2026-05-06 20:41 53.35175 -2.27441 248 ft 10 kts 50°
2026-05-06 20:41 53.35215 -2.27360 250 ft 9 kts 51°
2026-05-06 20:42 53.35255 -2.27277 251 ft 9 kts 51°
2026-05-06 20:42 53.35299 -2.27205 254 ft 8 kts 31°
2026-05-06 20:42 53.35333 -2.27190 256 ft 3 kts
2026-05-06 20:42 53.35337 -2.27189 257 ft 0 kts
2026-05-06 20:44 53.35345 -2.27189 257 ft 5 kts 360°
2026-05-06 20:44 53.35408 -2.27226 260 ft 15 kts 322°
2026-05-06 20:45 53.35495 -2.27352 262 ft 17 kts 321°
2026-05-06 20:45 53.35587 -2.27481 254 ft 21 kts 321°
2026-05-06 20:45 53.35669 -2.27589 248 ft 16 kts 322°
2026-05-06 20:45 53.35771 -2.27667 247 ft 17 kts 333°
2026-05-06 20:46 53.35853 -2.27806 247 ft 17 kts 313°
2026-05-06 20:46 53.35948 -2.27843 247 ft 12 kts 356°
2026-05-06 20:46 53.36025 -2.27888 247 ft 12 kts
2026-05-06 20:46 53.36104 -2.27892 247 ft 13 kts 320°
2026-05-06 20:47 53.36168 -2.27998 247 ft 13 kts 315°
2026-05-06 20:47 53.36234 -2.28115 247 ft 14 kts 313°
2026-05-06 20:47 53.36303 -2.28227 247 ft 10 kts 314°
2026-05-06 20:47 53.36348 -2.28302 247 ft 4 kts 315°
2026-05-06 20:48 53.36368 -2.28337 247 ft 5 kts 315°
2026-05-06 20:48 53.36391 -2.28380 247 ft 5 kts 306°
2026-05-06 20:48 53.36409 -2.28442 247 ft 6 kts 295°
2026-05-06 20:48 53.36436 -2.28513 247 ft 8 kts 308°
2026-05-06 20:49 53.36478 -2.28587 247 ft 9 kts 313°
2026-05-06 20:49 53.36525 -2.28667 247 ft 10 kts 315°
2026-05-06 20:49 53.36565 -2.28735 247 ft 11 kts 314°
2026-05-06 20:49 53.36629 -2.28777 247 ft 11 kts 15°
2026-05-06 20:50 53.36686 -2.28689 247 ft 12 kts 45°
2026-05-06 20:50 53.36753 -2.28604 247 ft 12 kts
2026-05-06 20:50 53.36799 -2.28671 247 ft 0 kts 312°
2026-05-06 20:50 53.36803 -2.28679 247 ft 2 kts 314°
2026-05-06 20:51 53.36813 -2.28696 247 ft 1 kts 314°
2026-05-06 20:51 53.36815 -2.28698 247 ft 0 kts 314°